Погода в Озерках

Россия / Калининградская область     54°37′46″N   20°53′32″E
темп.,
°C
ветер,
м/с
пор.,
м/с
влажн.,
%
обл.,
%
осадки,
мм/ч
давл.,
гПа
погр.,
м
24 января, пн
пн2423:00−1ю369539 0.0 1033144
02:00−2ю399619 0.0 1033203
05:00−2ю4990100 0.0 1033244
08:000ююз51090100 0.0 1032357
11:00+1ююз51091100 0.0 1032365
14:00+1юз51194100 0.0 1030399
17:00+1юз41197100 0.0 1029375
20:00+2юз41198100 0.0 1028378
25 января, вт
вт2523:00+3зюз51296100 0.0 1027458
02:00+3зюз61293100 0.0 1025540
05:00+3зюз61393100 0.0 1024619
08:00+3з61394100 0.1 1022695
11:00+3зсз51196100 0.0 1022473
14:00+4сз4998100 0.1 1022389
17:00+2ссз389724 0.0 1023175
20:00+1с38915 0.0 1025182
26 января, ср
ср2623:00−1ссв3891100 0.0 1026197
02:00−1с2289100 0.0 102627
05:00−2з118632 0.0 102610
08:00−2юз2287100 0.0 102539
11:000ююз367786 0.0 1024290
14:00+2юз5983100 0.0 1021545
17:00+2юз61497100 0.3 1018654
20:00+3зюз81596100 0.6 1015877
27 января, чт
чт2723:00+4зсз7148585 0.5 1014757
02:00+3з51290100 0.7 1013492
05:00+2з61293100 0.1 1012460
08:00+3зюз61393100 0.2 1009821
11:00+3юз61497100 1.2 1006962
14:00+4зюз91796100 2.6 10021018
17:00+4зюз91888100 0.3 9991241
20:00+4зюз111885100 0.4 9981304
28 января, пт
пт2823:00+3зюз111990100 0.1 9961388
02:00+3з101696100 1.9 9961117
05:00+3сз71197100 1.5 996877
08:00+3ссз111681100 2.2 10011208
11:00+2ссз111682100 0.2 10061495
14:00+2ссз101681100 0.4 10101475
17:00+2ссз101579100 0.3 10141287
20:00+1ссз101575100 0.4 10171243